Information on these data can be found in provided Readme document
Contact Info: Zachary Fasnacht (zachary.fasnacht@ssaihq.com); Nickolay Krotkov (nickolay.a.krotkov@nasa.gov); Lok Lamsal (lok.lamsal@nasa.gov)

FillValue: -999.
ScaleFactor: 1e15
Units: molecules/cm^2

Date(yyyy-mm-dd),City,Country,LonCenter,LatCenter,BoundingCoordinates,Median,Q1,Q3,Mean,Baseline_Median,Baseline_Q1,Baseline_Q3,Baseline_Mean,NumGoodSamples,NumTotalSamples
2015-01-01,Bandung,Indonesia,107.6098,-6.9147,[107.1098 -7.4147 108.1098 -6.4147],0.685,0.468,1.389,0.843,0.968,0.435,1.796,1.147,22.0,500.0
2015-01-02,Bandung,Indonesia,107.6098,-6.9147,[107.1098 -7.4147 108.1098 -6.4147],0.585,0.427,1.022,0.694,0.904,0.469,1.569,1.087,52.0,529.0
2015-01-03,Bandung,Indonesia,107.6098,-6.9147,[107.1098 -7.4147 108.1098 -6.4147],0.585,0.427,0.868,0.667,0.963,0.458,1.634,1.087,56.0,515.0
2015-01-04,Bandung,Indonesia,107.6098,-6.9147,[107.1098 -7.4147 108.1098 -6.4147],0.685,0.427,1.258,0.849,0.937,0.435,1.591,1.096,84.0,521.0
2015-01-05,Bandung,Indonesia,107.6098,-6.9147,[107.1098 -7.4147 108.1098 -6.4147],0.685,0.427,1.258,0.849,0.884,0.439,1.593,1.086,84.0,521.0
2015-01-06,Bandung,Indonesia,107.6098,-6.9147,[107.1098 -7.4147 108.1098 -6.4147],0.685,0.427,1.258,0.847,0.948,0.462,1.604,1.107,83.0,501.0
2015-01-07,Bandung,Indonesia,107.6098,-6.9147,[107.1098 -7.4147 108.1098 -6.4147],0.685,0.427,1.258,0.853,1.04,0.529,1.757,1.197,84.0,530.0
2015-01-08,Bandung,Indonesia,107.6098,-6.9147,[107.1098 -7.4147 108.1098 -6.4147],0.685,0.427,1.258,0.853,1.095,0.537,1.768,1.207,86.0,493.0
2015-01-09,Bandung,Indonesia,107.6098,-6.9147,[107.1098 -7.4147 108.1098 -6.4147],0.685,0.427,1.258,0.853,1.055,0.532,1.712,1.199,86.0,527.0
2015-01-10,Bandung,Indonesia,107.6098,-6.9147,[107.1098 -7.4147 108.1098 -6.4147],0.685,0.427,1.258,0.839,1.055,0.524,1.731,1.192,85.0,481.0
2015-01-11,Bandung,Indonesia,107.6098,-6.9147,[107.1098 -7.4147 108.1098 -6.4147],0.685,0.427,1.258,0.839,1.06,0.53,1.795,1.185,85.0,497.0
2015-01-12,Bandung,Indonesia,107.6098,-6.9147,[107.1098 -7.4147 108.1098 -6.4147],0.685,0.427,1.258,0.839,1.047,0.528,1.798,1.189,85.0,495.0
2015-01-13,Bandung,Indonesia,107.6098,-6.9147,[107.1098 -7.4147 108.1098 -6.4147],0.685,0.427,1.151,0.836,1.064,0.53,1.806,1.214,83.0,489.0
2015-01-14,Bandung,Indonesia,107.6098,-6.9147,[107.1098 -7.4147 108.1098 -6.4147],0.685,0.427,1.258,0.835,1.051,0.521,1.756,1.18,82.0,505.0
2015-01-15,Bandung,Indonesia,107.6098,-6.9147,[107.1098 -7.4147 108.1098 -6.4147],0.685,0.427,1.258,0.835,1.039,0.48,1.646,1.123,82.0,474.0
2015-01-16,Bandung,Indonesia,107.6098,-6.9147,[107.1098 -7.4147 108.1098 -6.4147],0.836,0.279,1.393,0.901,1.183,0.452,1.76,1.202,72.0,502.0
2015-01-17,Bandung,Indonesia,107.6098,-6.9147,[107.1098 -7.4147 108.1098 -6.4147],0.869,0.49,1.511,1.152,1.147,0.457,1.81,1.265,41.0,475.0
2015-01-18,Bandung,Indonesia,107.6098,-6.9147,[107.1098 -7.4147 108.1098 -6.4147],1.151,0.792,2.002,1.366,1.15,0.529,1.87,1.272,34.0,501.0
2015-01-19,Bandung,Indonesia,107.6098,-6.9147,[107.1098 -7.4147 108.1098 -6.4147],2.116,1.007,2.116,1.675,1.245,0.687,2.012,1.41,6.0,490.0
2015-01-20,Bandung,Indonesia,107.6098,-6.9147,[107.1098 -7.4147 108.1098 -6.4147],2.116,1.007,2.116,1.675,1.155,0.632,1.982,1.349,6.0,497.0
2015-01-21,Bandung,Indonesia,107.6098,-6.9147,[107.1098 -7.4147 108.1098 -6.4147],2.116,1.272,2.116,1.898,1.25,0.582,2.029,1.388,8.0,499.0
2015-01-22,Bandung,Indonesia,107.6098,-6.9147,[107.1098 -7.4147 108.1098 -6.4147],1.272,0.485,2.831,1.789,0.983,0.488,1.99,1.231,14.0,478.0
2015-01-23,Bandung,Indonesia,107.6098,-6.9147,[107.1098 -7.4147 108.1098 -6.4147],1.89,0.485,2.831,1.815,1.067,0.464,1.732,1.151,13.0,508.0
2015-01-24,Bandung,Indonesia,107.6098,-6.9147,[107.1098 -7.4147 108.1098 -6.4147],1.89,0.485,2.831,1.815,1.088,0.389,1.834,1.185,13.0,472.0
2015-01-25,Bandung,Indonesia,107.6098,-6.9147,[107.1098 -7.4147 108.1098 -6.4147],1.89,0.485,2.831,1.815,1.118,0.325,1.788,1.225,13.0,527.0
2015-01-26,Bandung,Indonesia,107.6098,-6.9147,[107.1098 -7.4147 108.1098 -6.4147],1.162,0.485,2.116,1.608,1.065,0.583,1.943,1.343,18.0,500.0
2015-01-27,Bandung,Indonesia,107.6098,-6.9147,[107.1098 -7.4147 108.1098 -6.4147],1.074,0.485,2.116,1.552,1.05,0.582,1.945,1.335,20.0,514.0
2015-01-28,Bandung,Indonesia,107.6098,-6.9147,[107.1098 -7.4147 108.1098 -6.4147],1.074,0.485,2.116,1.552,1.0,0.518,1.618,1.247,20.0,512.0
2015-01-29,Bandung,Indonesia,107.6098,-6.9147,[107.1098 -7.4147 108.1098 -6.4147],0.974,0.485,2.116,1.43,1.097,0.497,1.973,1.345,23.0,508.0
2015-01-30,Bandung,Indonesia,107.6098,-6.9147,[107.1098 -7.4147 108.1098 -6.4147],1.074,0.485,2.116,1.477,1.207,0.53,2.077,1.414,26.0,526.0
2015-01-31,Bandung,Indonesia,107.6098,-6.9147,[107.1098 -7.4147 108.1098 -6.4147],1.162,0.557,2.116,1.566,1.407,0.529,2.327,1.518,27.0,497.0
2015-02-01,Bandung,Indonesia,107.6098,-6.9147,[107.1098 -7.4147 108.1098 -6.4147],1.037,0.485,2.831,1.518,1.496,0.539,2.6,1.577,25.0,526.0
2015-02-02,Bandung,Indonesia,107.6098,-6.9147,[107.1098 -7.4147 108.1098 -6.4147],1.074,0.485,2.831,1.529,1.428,0.548,2.547,1.561,24.0,500.0
2015-02-03,Bandung,Indonesia,107.6098,-6.9147,[107.1098 -7.4147 108.1098 -6.4147],1.19,0.485,2.831,1.664,1.445,0.559,2.555,1.591,27.0,527.0
2015-02-04,Bandung,Indonesia,107.6098,-6.9147,[107.1098 -7.4147 108.1098 -6.4147],1.19,0.485,2.831,1.664,1.448,0.62,2.573,1.601,27.0,516.0
2015-02-05,Bandung,Indonesia,107.6098,-6.9147,[107.1098 -7.4147 108.1098 -6.4147],1.118,0.485,2.86,1.602,1.438,0.628,2.547,1.585,25.0,523.0
2015-02-06,Bandung,Indonesia,107.6098,-6.9147,[107.1098 -7.4147 108.1098 -6.4147],1.24,0.557,2.114,1.491,1.613,0.663,2.54,1.663,18.0,526.0
2015-02-07,Bandung,Indonesia,107.6098,-6.9147,[107.1098 -7.4147 108.1098 -6.4147],0.844,0.444,1.807,1.081,1.612,0.705,2.572,1.684,24.0,505.0
2015-02-08,Bandung,Indonesia,107.6098,-6.9147,[107.1098 -7.4147 108.1098 -6.4147],0.844,0.444,1.803,1.019,1.703,0.729,2.599,1.699,26.0,534.0
2015-02-09,Bandung,Indonesia,107.6098,-6.9147,[107.1098 -7.4147 108.1098 -6.4147],0.844,0.444,1.803,1.023,1.51,0.737,2.527,1.655,27.0,496.0
2015-02-10,Bandung,Indonesia,107.6098,-6.9147,[107.1098 -7.4147 108.1098 -6.4147],0.844,0.444,1.821,1.083,1.241,0.698,2.403,1.571,22.0,530.0
2015-02-11,Bandung,Indonesia,107.6098,-6.9147,[107.1098 -7.4147 108.1098 -6.4147],0.844,0.444,1.821,1.11,1.233,0.714,2.36,1.6,20.0,485.0
2015-02-12,Bandung,Indonesia,107.6098,-6.9147,[107.1098 -7.4147 108.1098 -6.4147],0.844,0.444,1.821,1.11,1.232,0.654,2.265,1.569,20.0,500.0
2015-02-13,Bandung,Indonesia,107.6098,-6.9147,[107.1098 -7.4147 108.1098 -6.4147],0.844,0.444,1.821,1.193,1.266,0.713,2.188,1.624,17.0,495.0
2015-02-14,Bandung,Indonesia,107.6098,-6.9147,[107.1098 -7.4147 108.1098 -6.4147],0.987,0.488,1.835,1.226,1.162,0.66,2.116,1.545,32.0,489.0
2015-02-15,Bandung,Indonesia,107.6098,-6.9147,[107.1098 -7.4147 108.1098 -6.4147],1.344,0.555,1.867,1.495,1.23,0.647,2.071,1.58,48.0,506.0
2015-02-16,Bandung,Indonesia,107.6098,-6.9147,[107.1098 -7.4147 108.1098 -6.4147],1.344,0.555,1.867,1.495,1.234,0.654,2.088,1.596,48.0,475.0
2015-02-17,Bandung,Indonesia,107.6098,-6.9147,[107.1098 -7.4147 108.1098 -6.4147],1.344,0.555,1.867,1.495,1.283,0.676,2.08,1.618,48.0,503.0
2015-02-18,Bandung,Indonesia,107.6098,-6.9147,[107.1098 -7.4147 108.1098 -6.4147],1.028,0.444,1.84,1.299,1.146,0.616,2.082,1.543,48.0,475.0
2015-02-19,Bandung,Indonesia,107.6098,-6.9147,[107.1098 -7.4147 108.1098 -6.4147],1.134,0.444,1.861,1.394,1.269,0.658,2.21,1.583,54.0,501.0
2015-02-20,Bandung,Indonesia,107.6098,-6.9147,[107.1098 -7.4147 108.1098 -6.4147],1.134,0.444,1.861,1.394,1.248,0.649,2.211,1.578,54.0,490.0
2015-02-21,Bandung,Indonesia,107.6098,-6.9147,[107.1098 -7.4147 108.1098 -6.4147],1.134,0.488,1.861,1.399,1.255,0.656,2.212,1.575,56.0,497.0
2015-02-22,Bandung,Indonesia,107.6098,-6.9147,[107.1098 -7.4147 108.1098 -6.4147],1.422,0.555,2.286,1.547,1.292,0.639,2.256,1.564,49.0,500.0
2015-02-23,Bandung,Indonesia,107.6098,-6.9147,[107.1098 -7.4147 108.1098 -6.4147],1.473,0.555,2.286,1.582,1.314,0.637,2.245,1.567,47.0,479.0
2015-02-24,Bandung,Indonesia,107.6098,-6.9147,[107.1098 -7.4147 108.1098 -6.4147],1.473,0.555,2.286,1.602,1.243,0.64,2.279,1.579,48.0,509.0
2015-02-25,Bandung,Indonesia,107.6098,-6.9147,[107.1098 -7.4147 108.1098 -6.4147],1.473,0.555,2.286,1.602,1.443,0.623,2.385,1.627,48.0,474.0
2015-02-26,Bandung,Indonesia,107.6098,-6.9147,[107.1098 -7.4147 108.1098 -6.4147],1.473,0.555,2.286,1.602,1.43,0.602,2.391,1.621,48.0,530.0
2015-02-27,Bandung,Indonesia,107.6098,-6.9147,[107.1098 -7.4147 108.1098 -6.4147],0.987,0.237,1.861,1.368,1.292,0.597,2.217,1.579,61.0,503.0
2015-02-28,Bandung,Indonesia,107.6098,-6.9147,[107.1098 -7.4147 108.1098 -6.4147],0.987,0.237,1.861,1.368,1.281,0.595,2.215,1.564,61.0,521.0
2015-03-01,Bandung,Indonesia,107.6098,-6.9147,[107.1098 -7.4147 108.1098 -6.4147],0.973,0.237,1.98,1.393,1.274,0.696,2.351,1.64,43.0,518.0
2015-03-02,Bandung,Indonesia,107.6098,-6.9147,[107.1098 -7.4147 108.1098 -6.4147],0.807,0.237,1.677,1.159,1.214,0.726,2.27,1.581,37.0,512.0
2015-03-03,Bandung,Indonesia,107.6098,-6.9147,[107.1098 -7.4147 108.1098 -6.4147],0.828,0.237,1.778,1.324,1.202,0.69,2.228,1.6,43.0,529.0
2015-03-04,Bandung,Indonesia,107.6098,-6.9147,[107.1098 -7.4147 108.1098 -6.4147],0.828,0.237,1.778,1.324,1.195,0.688,2.126,1.578,43.0,498.0
2015-03-05,Bandung,Indonesia,107.6098,-6.9147,[107.1098 -7.4147 108.1098 -6.4147],0.973,0.325,1.806,1.465,1.243,0.662,2.167,1.626,40.0,527.0
2015-03-06,Bandung,Indonesia,107.6098,-6.9147,[107.1098 -7.4147 108.1098 -6.4147],0.973,0.246,1.677,1.341,1.18,0.64,2.136,1.582,35.0,500.0
2015-03-07,Bandung,Indonesia,107.6098,-6.9147,[107.1098 -7.4147 108.1098 -6.4147],0.973,0.237,1.677,1.277,1.199,0.666,2.09,1.536,45.0,526.0
2015-03-08,Bandung,Indonesia,107.6098,-6.9147,[107.1098 -7.4147 108.1098 -6.4147],0.939,0.237,1.677,1.27,1.232,0.688,2.136,1.564,43.0,516.0
2015-03-09,Bandung,Indonesia,107.6098,-6.9147,[107.1098 -7.4147 108.1098 -6.4147],0.973,0.325,1.778,1.347,1.188,0.655,2.086,1.484,50.0,522.0
2015-03-10,Bandung,Indonesia,107.6098,-6.9147,[107.1098 -7.4147 108.1098 -6.4147],0.973,0.325,1.806,1.368,1.189,0.636,2.065,1.486,52.0,526.0
2015-03-11,Bandung,Indonesia,107.6098,-6.9147,[107.1098 -7.4147 108.1098 -6.4147],0.973,0.252,1.778,1.26,1.23,0.587,2.066,1.46,60.0,504.0
2015-03-12,Bandung,Indonesia,107.6098,-6.9147,[107.1098 -7.4147 108.1098 -6.4147],0.973,0.252,1.778,1.251,1.21,0.605,1.94,1.452,63.0,532.0
2015-03-13,Bandung,Indonesia,107.6098,-6.9147,[107.1098 -7.4147 108.1098 -6.4147],0.973,0.252,1.778,1.251,1.197,0.601,1.957,1.442,63.0,494.0
2015-03-14,Bandung,Indonesia,107.6098,-6.9147,[107.1098 -7.4147 108.1098 -6.4147],1.075,0.325,2.006,1.429,1.223,0.651,1.995,1.488,50.0,529.0
2015-03-15,Bandung,Indonesia,107.6098,-6.9147,[107.1098 -7.4147 108.1098 -6.4147],1.075,0.325,2.006,1.429,1.226,0.654,2.103,1.494,50.0,482.0
2015-03-16,Bandung,Indonesia,107.6098,-6.9147,[107.1098 -7.4147 108.1098 -6.4147],1.267,0.368,2.251,1.537,1.241,0.602,2.121,1.446,68.0,497.0
2015-03-17,Bandung,Indonesia,107.6098,-6.9147,[107.1098 -7.4147 108.1098 -6.4147],1.246,0.3,2.303,1.565,1.236,0.625,2.151,1.433,57.0,495.0
2015-03-18,Bandung,Indonesia,107.6098,-6.9147,[107.1098 -7.4147 108.1098 -6.4147],1.075,0.3,2.006,1.372,1.212,0.584,2.083,1.392,51.0,490.0
2015-03-19,Bandung,Indonesia,107.6098,-6.9147,[107.1098 -7.4147 108.1098 -6.4147],1.267,0.3,2.006,1.418,1.234,0.443,2.105,1.387,61.0,507.0
2015-03-20,Bandung,Indonesia,107.6098,-6.9147,[107.1098 -7.4147 108.1098 -6.4147],1.267,0.203,1.887,1.35,1.285,0.452,2.08,1.399,69.0,476.0
2015-03-21,Bandung,Indonesia,107.6098,-6.9147,[107.1098 -7.4147 108.1098 -6.4147],1.267,0.215,1.887,1.364,1.253,0.515,2.014,1.363,68.0,505.0
2015-03-22,Bandung,Indonesia,107.6098,-6.9147,[107.1098 -7.4147 108.1098 -6.4147],1.075,0.203,1.887,1.307,1.108,0.445,2.002,1.326,60.0,477.0
2015-03-23,Bandung,Indonesia,107.6098,-6.9147,[107.1098 -7.4147 108.1098 -6.4147],1.075,0.203,1.887,1.318,1.105,0.422,1.971,1.304,76.0,501.0
2015-03-24,Bandung,Indonesia,107.6098,-6.9147,[107.1098 -7.4147 108.1098 -6.4147],0.986,0.203,1.856,1.22,1.138,0.493,2.047,1.337,74.0,492.0
2015-03-25,Bandung,Indonesia,107.6098,-6.9147,[107.1098 -7.4147 108.1098 -6.4147],0.938,0.203,1.822,1.198,1.125,0.475,2.029,1.326,72.0,499.0
2015-03-26,Bandung,Indonesia,107.6098,-6.9147,[107.1098 -7.4147 108.1098 -6.4147],0.986,0.203,1.822,1.274,1.126,0.462,2.028,1.331,64.0,505.0
2015-03-27,Bandung,Indonesia,107.6098,-6.9147,[107.1098 -7.4147 108.1098 -6.4147],0.986,0.203,1.822,1.287,1.079,0.475,1.926,1.298,61.0,482.0
2015-03-28,Bandung,Indonesia,107.6098,-6.9147,[107.1098 -7.4147 108.1098 -6.4147],0.986,0.203,1.822,1.284,1.03,0.457,1.905,1.245,63.0,511.0
2015-03-29,Bandung,Indonesia,107.6098,-6.9147,[107.1098 -7.4147 108.1098 -6.4147],1.047,0.203,1.822,1.287,1.063,0.493,1.933,1.262,64.0,472.0
2015-03-30,Bandung,Indonesia,107.6098,-6.9147,[107.1098 -7.4147 108.1098 -6.4147],1.047,0.203,1.822,1.287,1.049,0.425,1.914,1.221,64.0,526.0
2015-03-31,Bandung,Indonesia,107.6098,-6.9147,[107.1098 -7.4147 108.1098 -6.4147],0.885,0.107,1.494,1.104,1.058,0.435,1.895,1.219,47.0,502.0
2015-04-01,Bandung,Indonesia,107.6098,-6.9147,[107.1098 -7.4147 108.1098 -6.4147],0.969,0.107,1.559,1.138,1.05,0.452,1.894,1.219,50.0,513.0
2015-04-02,Bandung,Indonesia,107.6098,-6.9147,[107.1098 -7.4147 108.1098 -6.4147],0.885,0.107,1.612,1.107,1.031,0.411,1.768,1.177,56.0,509.0
2015-04-03,Bandung,Indonesia,107.6098,-6.9147,[107.1098 -7.4147 108.1098 -6.4147],0.969,0.107,1.686,1.148,1.077,0.403,1.806,1.195,64.0,504.0
2015-04-04,Bandung,Indonesia,107.6098,-6.9147,[107.1098 -7.4147 108.1098 -6.4147],0.986,0.038,1.803,1.177,1.037,0.408,1.759,1.168,58.0,522.0
2015-04-05,Bandung,Indonesia,107.6098,-6.9147,[107.1098 -7.4147 108.1098 -6.4147],1.109,0.261,1.686,1.161,1.149,0.364,1.79,1.178,61.0,491.0
2015-04-06,Bandung,Indonesia,107.6098,-6.9147,[107.1098 -7.4147 108.1098 -6.4147],1.27,0.29,1.803,1.287,1.217,0.587,1.85,1.267,59.0,520.0
2015-04-07,Bandung,Indonesia,107.6098,-6.9147,[107.1098 -7.4147 108.1098 -6.4147],1.445,0.29,1.793,1.276,1.221,0.592,1.889,1.265,44.0,494.0
2015-04-08,Bandung,Indonesia,107.6098,-6.9147,[107.1098 -7.4147 108.1098 -6.4147],1.445,0.29,2.036,1.313,1.224,0.6,1.9,1.275,55.0,518.0
2015-04-09,Bandung,Indonesia,107.6098,-6.9147,[107.1098 -7.4147 108.1098 -6.4147],1.445,0.29,1.927,1.305,1.224,0.56,1.884,1.285,56.0,507.0
2015-04-10,Bandung,Indonesia,107.6098,-6.9147,[107.1098 -7.4147 108.1098 -6.4147],1.445,0.29,1.954,1.316,1.131,0.507,1.878,1.235,54.0,512.0
2015-04-11,Bandung,Indonesia,107.6098,-6.9147,[107.1098 -7.4147 108.1098 -6.4147],1.445,0.29,1.954,1.316,1.127,0.483,1.855,1.23,54.0,519.0
2015-04-12,Bandung,Indonesia,107.6098,-6.9147,[107.1098 -7.4147 108.1098 -6.4147],1.391,0.373,1.927,1.272,1.143,0.534,1.83,1.246,56.0,498.0
2015-04-13,Bandung,Indonesia,107.6098,-6.9147,[107.1098 -7.4147 108.1098 -6.4147],1.334,0.326,1.927,1.256,1.146,0.503,1.817,1.217,57.0,529.0
2015-04-14,Bandung,Indonesia,107.6098,-6.9147,[107.1098 -7.4147 108.1098 -6.4147],1.338,0.373,2.036,1.3,1.15,0.536,1.845,1.242,58.0,492.0
2015-04-15,Bandung,Indonesia,107.6098,-6.9147,[107.1098 -7.4147 108.1098 -6.4147],1.338,0.373,2.036,1.297,1.147,0.541,1.763,1.239,57.0,524.0
2015-04-16,Bandung,Indonesia,107.6098,-6.9147,[107.1098 -7.4147 108.1098 -6.4147],1.334,0.29,2.036,1.274,1.147,0.53,1.755,1.217,54.0,482.0
2015-04-17,Bandung,Indonesia,107.6098,-6.9147,[107.1098 -7.4147 108.1098 -6.4147],1.291,0.456,1.814,1.256,1.168,0.585,1.772,1.251,54.0,499.0
2015-04-18,Bandung,Indonesia,107.6098,-6.9147,[107.1098 -7.4147 108.1098 -6.4147],1.068,0.517,1.709,1.096,1.126,0.642,1.773,1.244,36.0,495.0
2015-04-19,Bandung,Indonesia,107.6098,-6.9147,[107.1098 -7.4147 108.1098 -6.4147],0.933,0.517,1.793,1.081,1.147,0.642,1.866,1.275,44.0,489.0
2015-04-20,Bandung,Indonesia,107.6098,-6.9147,[107.1098 -7.4147 108.1098 -6.4147],0.933,0.517,1.943,1.095,1.066,0.606,1.756,1.228,41.0,506.0
2015-04-21,Bandung,Indonesia,107.6098,-6.9147,[107.1098 -7.4147 108.1098 -6.4147],1.055,0.403,1.793,1.07,1.001,0.483,1.732,1.14,51.0,475.0
2015-04-22,Bandung,Indonesia,107.6098,-6.9147,[107.1098 -7.4147 108.1098 -6.4147],1.026,0.403,1.814,1.057,1.045,0.545,1.752,1.145,50.0,504.0
2015-04-23,Bandung,Indonesia,107.6098,-6.9147,[107.1098 -7.4147 108.1098 -6.4147],0.832,0.469,1.608,0.993,1.006,0.546,1.705,1.112,37.0,477.0
2015-04-24,Bandung,Indonesia,107.6098,-6.9147,[107.1098 -7.4147 108.1098 -6.4147],0.691,0.403,1.608,0.984,0.973,0.48,1.644,1.086,37.0,503.0
2015-04-25,Bandung,Indonesia,107.6098,-6.9147,[107.1098 -7.4147 108.1098 -6.4147],0.691,0.403,1.608,0.984,1.053,0.554,1.73,1.198,37.0,487.0
2015-04-26,Bandung,Indonesia,107.6098,-6.9147,[107.1098 -7.4147 108.1098 -6.4147],0.691,0.403,1.608,0.984,1.071,0.571,1.772,1.192,37.0,495.0
2015-04-27,Bandung,Indonesia,107.6098,-6.9147,[107.1098 -7.4147 108.1098 -6.4147],0.832,0.403,1.608,0.997,1.129,0.621,1.787,1.243,33.0,501.0
2015-04-28,Bandung,Indonesia,107.6098,-6.9147,[107.1098 -7.4147 108.1098 -6.4147],0.598,0.09,1.29,0.62,1.066,0.567,1.714,1.213,52.0,484.0
2015-04-29,Bandung,Indonesia,107.6098,-6.9147,[107.1098 -7.4147 108.1098 -6.4147],0.598,0.09,1.275,0.593,1.053,0.414,1.68,1.139,54.0,511.0
2015-04-30,Bandung,Indonesia,107.6098,-6.9147,[107.1098 -7.4147 108.1098 -6.4147],0.655,0.315,1.525,0.791,1.045,0.426,1.827,1.155,70.0,479.0
2015-05-01,Bandung,Indonesia,107.6098,-6.9147,[107.1098 -7.4147 108.1098 -6.4147],0.655,0.315,1.525,0.791,1.041,0.411,1.81,1.173,70.0,533.0
2015-05-02,Bandung,Indonesia,107.6098,-6.9147,[107.1098 -7.4147 108.1098 -6.4147],0.61,0.282,1.525,0.794,1.044,0.421,1.737,1.168,65.0,507.0
2015-05-03,Bandung,Indonesia,107.6098,-6.9147,[107.1098 -7.4147 108.1098 -6.4147],0.765,0.319,1.735,0.916,1.057,0.401,1.827,1.2,91.0,522.0
2015-05-04,Bandung,Indonesia,107.6098,-6.9147,[107.1098 -7.4147 108.1098 -6.4147],0.762,0.282,1.608,0.859,1.032,0.355,1.804,1.18,86.0,518.0
2015-05-05,Bandung,Indonesia,107.6098,-6.9147,[107.1098 -7.4147 108.1098 -6.4147],0.765,0.247,1.608,0.878,0.994,0.362,1.779,1.181,102.0,512.0
2015-05-06,Bandung,Indonesia,107.6098,-6.9147,[107.1098 -7.4147 108.1098 -6.4147],0.635,0.247,1.603,0.857,0.965,0.363,1.791,1.177,92.0,530.0
2015-05-07,Bandung,Indonesia,107.6098,-6.9147,[107.1098 -7.4147 108.1098 -6.4147],0.765,0.282,1.327,0.846,0.95,0.326,1.738,1.143,99.0,498.0
2015-05-08,Bandung,Indonesia,107.6098,-6.9147,[107.1098 -7.4147 108.1098 -6.4147],0.765,0.247,1.419,0.85,0.953,0.327,1.772,1.153,96.0,527.0
2015-05-09,Bandung,Indonesia,107.6098,-6.9147,[107.1098 -7.4147 108.1098 -6.4147],0.765,0.247,1.419,0.853,0.994,0.345,1.829,1.17,96.0,499.0
2015-05-10,Bandung,Indonesia,107.6098,-6.9147,[107.1098 -7.4147 108.1098 -6.4147],0.765,0.247,1.646,0.885,0.983,0.336,1.864,1.149,120.0,531.0
2015-05-11,Bandung,Indonesia,107.6098,-6.9147,[107.1098 -7.4147 108.1098 -6.4147],0.772,0.282,1.662,0.895,0.966,0.379,1.812,1.138,124.0,514.0
2015-05-12,Bandung,Indonesia,107.6098,-6.9147,[107.1098 -7.4147 108.1098 -6.4147],0.832,0.284,1.811,1.003,0.896,0.344,1.699,1.097,152.0,521.0
2015-05-13,Bandung,Indonesia,107.6098,-6.9147,[107.1098 -7.4147 108.1098 -6.4147],0.977,0.433,1.811,1.169,0.942,0.405,1.72,1.131,157.0,523.0
2015-05-14,Bandung,Indonesia,107.6098,-6.9147,[107.1098 -7.4147 108.1098 -6.4147],0.963,0.483,1.788,1.153,0.975,0.481,1.716,1.156,178.0,509.0
2015-05-15,Bandung,Indonesia,107.6098,-6.9147,[107.1098 -7.4147 108.1098 -6.4147],0.993,0.471,1.662,1.161,0.943,0.51,1.651,1.143,170.0,532.0
2015-05-16,Bandung,Indonesia,107.6098,-6.9147,[107.1098 -7.4147 108.1098 -6.4147],1.017,0.429,1.768,1.151,0.965,0.493,1.656,1.145,186.0,498.0
2015-05-17,Bandung,Indonesia,107.6098,-6.9147,[107.1098 -7.4147 108.1098 -6.4147],1.017,0.429,1.768,1.161,0.959,0.503,1.628,1.146,185.0,533.0
2015-05-18,Bandung,Indonesia,107.6098,-6.9147,[107.1098 -7.4147 108.1098 -6.4147],1.017,0.429,1.662,1.112,0.927,0.465,1.582,1.096,159.0,489.0
2015-05-19,Bandung,Indonesia,107.6098,-6.9147,[107.1098 -7.4147 108.1098 -6.4147],1.062,0.444,1.768,1.175,0.931,0.468,1.605,1.074,176.0,505.0
2015-05-20,Bandung,Indonesia,107.6098,-6.9147,[107.1098 -7.4147 108.1098 -6.4147],1.075,0.471,1.768,1.178,0.925,0.456,1.6,1.071,163.0,501.0
2015-05-21,Bandung,Indonesia,107.6098,-6.9147,[107.1098 -7.4147 108.1098 -6.4147],1.075,0.523,1.768,1.215,0.925,0.471,1.58,1.073,182.0,495.0
2015-05-22,Bandung,Indonesia,107.6098,-6.9147,[107.1098 -7.4147 108.1098 -6.4147],1.095,0.523,1.823,1.258,0.944,0.472,1.611,1.098,191.0,512.0
2015-05-23,Bandung,Indonesia,107.6098,-6.9147,[107.1098 -7.4147 108.1098 -6.4147],1.096,0.523,1.768,1.219,0.941,0.463,1.604,1.084,210.0,482.0
2015-05-24,Bandung,Indonesia,107.6098,-6.9147,[107.1098 -7.4147 108.1098 -6.4147],1.096,0.523,1.768,1.22,0.96,0.469,1.585,1.077,209.0,512.0
2015-05-25,Bandung,Indonesia,107.6098,-6.9147,[107.1098 -7.4147 108.1098 -6.4147],1.078,0.58,1.662,1.215,0.937,0.485,1.531,1.061,188.0,483.0
2015-05-26,Bandung,Indonesia,107.6098,-6.9147,[107.1098 -7.4147 108.1098 -6.4147],1.095,0.568,1.768,1.233,1.004,0.471,1.6,1.079,202.0,514.0
2015-05-27,Bandung,Indonesia,107.6098,-6.9147,[107.1098 -7.4147 108.1098 -6.4147],1.095,0.523,1.643,1.197,1.035,0.482,1.619,1.118,179.0,495.0
2015-05-28,Bandung,Indonesia,107.6098,-6.9147,[107.1098 -7.4147 108.1098 -6.4147],1.102,0.599,1.768,1.248,1.058,0.521,1.666,1.135,177.0,501.0
2015-05-29,Bandung,Indonesia,107.6098,-6.9147,[107.1098 -7.4147 108.1098 -6.4147],1.129,0.523,1.768,1.209,1.107,0.509,1.697,1.151,177.0,501.0
2015-05-30,Bandung,Indonesia,107.6098,-6.9147,[107.1098 -7.4147 108.1098 -6.4147],1.063,0.458,1.768,1.156,1.07,0.488,1.712,1.15,186.0,486.0
2015-05-31,Bandung,Indonesia,107.6098,-6.9147,[107.1098 -7.4147 108.1098 -6.4147],1.076,0.523,1.642,1.166,1.078,0.517,1.682,1.136,174.0,512.0
2015-06-01,Bandung,Indonesia,107.6098,-6.9147,[107.1098 -7.4147 108.1098 -6.4147],1.076,0.523,1.642,1.166,1.044,0.46,1.647,1.115,174.0,477.0
2015-06-02,Bandung,Indonesia,107.6098,-6.9147,[107.1098 -7.4147 108.1098 -6.4147],1.076,0.523,1.642,1.166,1.062,0.466,1.65,1.136,174.0,532.0
2015-06-03,Bandung,Indonesia,107.6098,-6.9147,[107.1098 -7.4147 108.1098 -6.4147],1.063,0.513,1.621,1.131,1.102,0.555,1.641,1.163,152.0,507.0
2015-06-04,Bandung,Indonesia,107.6098,-6.9147,[107.1098 -7.4147 108.1098 -6.4147],1.076,0.551,1.642,1.2,1.113,0.512,1.62,1.175,175.0,524.0
2015-06-05,Bandung,Indonesia,107.6098,-6.9147,[107.1098 -7.4147 108.1098 -6.4147],1.076,0.481,1.643,1.167,1.053,0.49,1.611,1.134,175.0,521.0
2015-06-06,Bandung,Indonesia,107.6098,-6.9147,[107.1098 -7.4147 108.1098 -6.4147],1.055,0.467,1.632,1.146,1.033,0.488,1.616,1.126,180.0,515.0
2015-06-07,Bandung,Indonesia,107.6098,-6.9147,[107.1098 -7.4147 108.1098 -6.4147],1.01,0.476,1.779,1.238,1.015,0.441,1.632,1.136,182.0,531.0
2015-06-08,Bandung,Indonesia,107.6098,-6.9147,[107.1098 -7.4147 108.1098 -6.4147],1.031,0.494,1.936,1.291,0.989,0.458,1.688,1.15,195.0,499.0
2015-06-09,Bandung,Indonesia,107.6098,-6.9147,[107.1098 -7.4147 108.1098 -6.4147],1.129,0.494,1.957,1.301,1.007,0.443,1.65,1.144,192.0,527.0
2015-06-10,Bandung,Indonesia,107.6098,-6.9147,[107.1098 -7.4147 108.1098 -6.4147],0.947,0.521,1.803,1.241,0.912,0.422,1.627,1.114,186.0,498.0
2015-06-11,Bandung,Indonesia,107.6098,-6.9147,[107.1098 -7.4147 108.1098 -6.4147],0.947,0.521,1.803,1.218,0.91,0.431,1.641,1.101,211.0,529.0
2015-06-12,Bandung,Indonesia,107.6098,-6.9147,[107.1098 -7.4147 108.1098 -6.4147],0.927,0.517,1.779,1.201,0.866,0.424,1.609,1.089,193.0,515.0
2015-06-13,Bandung,Indonesia,107.6098,-6.9147,[107.1098 -7.4147 108.1098 -6.4147],0.973,0.521,1.803,1.265,0.875,0.425,1.614,1.094,195.0,521.0
2015-06-14,Bandung,Indonesia,107.6098,-6.9147,[107.1098 -7.4147 108.1098 -6.4147],1.09,0.557,1.922,1.331,0.929,0.439,1.64,1.117,196.0,520.0
2015-06-15,Bandung,Indonesia,107.6098,-6.9147,[107.1098 -7.4147 108.1098 -6.4147],1.057,0.554,1.918,1.313,0.907,0.422,1.661,1.136,214.0,501.0
2015-06-16,Bandung,Indonesia,107.6098,-6.9147,[107.1098 -7.4147 108.1098 -6.4147],1.057,0.555,1.918,1.311,0.912,0.439,1.662,1.146,220.0,526.0